Hamilton, OH

12:32 AM EDT on April 26, 2017 (GMT -0400)
Butler County Regional

Weather History for KHAO - November, 2013

Change the Weather History Date:

Thursday, November 21, 2013

  Actual Average (KLUK) Record (KLUK)
Temperature  
Mean Temperature 49 °F -  
Max Temperature 57 °F 49 °F 71 °F (1979)
Min Temperature 41 °F 33 °F 15 °F (2014)
Degree Days  
Heating Degree Days 16    
Moisture  
Dew Point 40 °F    
Average Humidity 70    
Maximum Humidity 97    
Minimum Humidity 51    
Precipitation  
Precipitation 0.07 in - - ()
Sea Level Pressure  
Sea Level Pressure 30.27 in    
Wind  
Wind Speed 2 mph (SSE)    
Max Wind Speed 8 mph    
Max Gust Speed -    
Visibility 10 miles    
Events Rain    
Averages and records for this station are not official NWS values.
T = Trace of Precipitation, MM = Missing Value Source: NWS Daily Summary

Daily Weather History Graph

Daily Weather History Graph

Search for Another Location

Airport or City:

Trip Planner

Search our weather history database for the weather conditions in past years. The results will help you decide how hot, cold, wet, or windy it might be!

Date:

Astronomy

Nov. 21, 2013 Rise Set
Actual Time 7:28 AM EST 5:19 PM EST
Civil Twilight 6:59 AM EST 5:48 PM EST
Nautical Twilight 6:26 AM EST 6:20 PM EST
Astronomical Twilight 5:54 AM EST 6:52 PM EST
Moon 8:54 PM EST (11/21) 10:34 AM EST (11/21)
Length of Visible Light 10h 48m
Length of Day
9h 50m
Waning Gibbous, 85% of the Moon is Illuminated
Nov 21
Waning Gibbous
Nov 25
Last Quarter
Dec 2
New
Dec 9
First Quarter
Dec 17
Full

Hourly Weather History & Observations

Time (EST) Temp. Windchill Dew Point Humidity Pressure Visibility Wind Dir Wind Speed Gust Speed Precip Events Conditions
12:53 AM 41.0 °F 39.0 °F 32.0 °F 70% 30.26 in 10.0 mi East 3.5 mph - N/A   Mostly Cloudy
1:53 AM 43.0 °F - 33.1 °F 68% 30.27 in 10.0 mi Calm Calm - N/A   Overcast
2:53 AM 45.0 °F - 33.1 °F 63% 30.27 in 10.0 mi Calm Calm - 0.00 in Rain Light Rain
3:53 AM 44.1 °F - 34.0 °F 68% 30.29 in 10.0 mi Calm Calm - 0.00 in   Overcast
4:53 AM 42.1 °F - 37.9 °F 85% 30.31 in 9.0 mi Calm Calm - 0.02 in Rain Light Rain
5:53 AM 42.1 °F 38.4 °F 37.0 °F 82% 30.29 in 10.0 mi East 5.8 mph - 0.01 in   Mostly Cloudy
6:53 AM 42.1 °F - 37.9 °F 85% 30.30 in 10.0 mi Calm Calm - N/A   Scattered Clouds
7:53 AM 41.0 °F - 36.0 °F 82% 30.34 in 10.0 mi Calm Calm - N/A   Partly Cloudy
8:53 AM 44.1 °F - 37.0 °F 76% 30.34 in 10.0 mi Calm Calm - N/A   Clear
9:53 AM 48.9 °F - 34.0 °F 56% 30.35 in 10.0 mi Variable 4.6 mph - N/A   Clear
10:53 AM 55.0 °F - 37.0 °F 51% 30.34 in 10.0 mi South 6.9 mph - N/A   Clear
11:17 AM 53.6 °F - 37.4 °F 54% 30.33 in 10.0 mi South 8.1 mph - N/A   Mostly Cloudy
11:53 AM 54.0 °F - 37.0 °F 53% 30.31 in 10.0 mi South 5.8 mph - N/A   Partly Cloudy
12:36 PM 55.4 °F - 41.0 °F 58% 30.27 in 10.0 mi Variable 6.9 mph - N/A   Mostly Cloudy
12:53 PM 57.9 °F - 43.0 °F 58% 30.28 in 10.0 mi Variable 4.6 mph - N/A   Mostly Cloudy
1:51 PM 57.2 °F - 42.8 °F 59% 30.24 in 10.0 mi SSE 4.6 mph - N/A   Mostly Cloudy
1:53 PM 57.0 °F - 42.1 °F 57% 30.25 in 10.0 mi Variable 4.6 mph - N/A   Mostly Cloudy
2:53 PM 57.0 °F - 43.0 °F 59% 30.21 in 10.0 mi Variable 6.9 mph - N/A   Clear
3:53 PM 55.9 °F - 42.1 °F 60% 30.22 in 10.0 mi South 3.5 mph - N/A   Scattered Clouds
4:53 PM 55.0 °F - 42.1 °F 62% 30.24 in 10.0 mi Calm Calm - N/A   Overcast
5:11 PM 55.4 °F - 42.8 °F 63% 30.24 in 10.0 mi Calm Calm - N/A   Overcast
5:53 PM 54.0 °F - 42.1 °F 64% 30.25 in 10.0 mi Calm Calm - N/A   Overcast
6:53 PM 51.1 °F - 43.0 °F 74% 30.26 in 10.0 mi Calm Calm - N/A   Overcast
7:53 PM 50.0 °F - 45.0 °F 83% 30.24 in 10.0 mi Calm Calm - 0.01 in Rain Light Rain
8:53 PM 48.9 °F - 46.9 °F 93% 30.24 in 10.0 mi Calm Calm - 0.02 in Rain Light Rain
9:53 PM 48.9 °F - 48.0 °F 97% 30.24 in 6.0 mi Calm Calm - 0.01 in   Overcast
10:53 PM 50.0 °F - 48.0 °F 93% 30.22 in 9.0 mi Calm Calm - N/A   Overcast
11:53 PM 48.9 °F - 48.0 °F 97% 30.22 in 7.0 mi Calm Calm - N/A   Overcast